Probability
0 0 0 0 0 0 0 0 0 0 0 0 0 0 0 0 0 0 0 0 0 0 0 0 0 0 0 0 0 0 0 0 0 0 0 0 0 0
0 0 0 0 0 0 0 0 0 0 0 0 0 0 0 0 0 0 0 0 0 0 0 0 0 0 0 0 0 0 0 0 0 0 0 0 0 0
0 0 0 0 0 0 0 0 0 0 0 0 0 0 0 0 0 0 0 0 0 0 0 0 0 0 0 0 0 0 0 0 0 0 0 0 0 0
0 0 0 0 0 0 0 0 0 0 0 0 0 0 0 0 0 0 0 0 0 0 0 0 0 0 0 0 0 0 0 0 0 0 0 0 0 0
0 0 0 0 0 0 0 0 0 0 0 0 0 0 0 0 0 0 0 0 0 0 0 0 0 0 0 0 0 0 0 0 0 0 0 0 0 0
0 0 0 0 0 0 0 0 0 0 0 0 0 0 0 0 0 0 0 0 0 0 0 0 0 0 0 0 0 0 0 0 0 0 0 0 0 0
0 0 0 0 0 0 0 0 0 0 0 0 0 0 0 0 0 0 0 0 0 0 0 0 0 0 0 0 0 0 0 0 0 0 0 0 0 0
0 0 0 0 0 0 0 0 0 0 0 0 0 0 0 0 0 0 0 0 0 0 0 0 0 0 0 0 0 0 0 0 0 0 0 0 0 0
0 0 0 0 0 0 0 0 0 0 0 0 0 0 0 0 0 0 0 0 0 0 0 0 0 0 0 0 0 0 0 0 0 0 0 0 0 0
0 0 0 0 0 0 0 0 0 0 0 0 0 0 0 0 0 0 0 0 0 0 0 0 0 0 0 0 0 0 0 0 0 0 0 0 0 0
0 0 0 0 0 0 0 0 0 0 0 0 0 0 0 0 0 0 0 0 0 0 0 0 0 0 0 0 0 0 0 0 0 0 0 0 0 0
0 0 0 0 0 0 0 0 0 0 0 0 0 0 0 0 0 0 0 0 0 0 0 0 0 0 0 0 0 0 0 0 0 0 0 0 0 0
0 0 0 0 0 0 0 0 0 0 0 0 0 0 0 0 0 0 0 0 0 0 0 0 0 0 0 0 0 0 0 0 0 0 0 0 0 0
0 0 0 0 0 0 0 0 0 0 0 0 0 0 0 0 0 0 0 0 0 0 0 0 0 0 0 0 0 0 0 0 0 0 0 0 0 0
0 0 0 0 0 0 0 0 0 0 0 0 0 0 0 0 0 0 0 0 0 0 0 0 0 0 0 0 0 0 0 0 0 0 0 0 0 0
0 0 0 0 0 0 0 0 0 0 0 0 0 0 0 0 0 0 0 0 0 0 0 0 0 0 0 0 0 0 0 0 0 0 0 0 0 0
0 0 0 0 0 0 0 0 0 0 0 0 0 0 0 0 0 0 0 0 0 0 0 0 0 0 0 0 0 0 0 0 0 0 0 0 0 0
0 0 0 0 0 0 0 0 0 0 0 0 0 0 0 0 0 0 0 0 0 0 0 0 0 0 0 0 0 0 0 0 0 0 0 0 0 0
0 0 0 0 0 0 0 0 0 0 0 0 0 0 0 0 0 0 0 0 0 0 0 0 0 0 0 0 0 0 0 0 0 0 0 0 0 0
0 0 0 0 0 0 0 0 0 0 0 0 0 0 0 0 0 0 0 0 0 0 0 0 0 0 0 0 0 0 0 0 0 0 0 0 0 0
0 0 0 0 0 0 0 0 0 0 0 0 0 0 0 0 0 0 0 0 0 0 0 0 0 0 0 0 0 0 0 0 0 0 0 0 0 0
0 0 0 0 0 0 0 0 0 0 0 0 0 0 0 0 0 0 0 0 0 0 0 0 0 0 0 0 0 0 0 0 0 0 0 0 0 0
0 0 0 0 0 0 0 0 0 0 0 0 0 0 0 0 0 0 0 0 0 0 0 0 0 0 0 0 0 0 0 0 0 0 0 0 0 0
Wind_Speed
2 3 2 2 2 2 2 2 2 1 1 0 1 1 1 2 2 2 2 4 6 6 8 8 9 9 10 10 10 11 11 11 11 11 11 10 8 7
2 3 2 1 1 2 2 2 2 2 1 0 1 1 1 1 2 1 2 4 4 4 5 6 7 8 8 9 9 9 9 10 10 10 11 10 10 9
2 3 2 2 2 2 2 2 2 2 2 0 1 1 2 1 1 0 1 2 1 2 2 3 4 5 6 7 7 8 8 9 9 9 9 9 9 8
2 2 2 1 1 1 1 1 1 1 2 1 1 1 1 0 0 0 0 1 1 1 2 1 2 3 4 4 5 6 7 7 7 8 8 9 9 8
1 1 1 1 1 1 1 1 1 1 1 1 0 0 1 1 1 1 1 1 1 1 2 1 0 1 2 2 3 4 5 5 6 6 7 8 8 8
1 1 1 2 1 1 1 1 1 1 1 0 0 0 1 1 1 1 1 1 1 1 1 1 2 2 2 1 2 2 3 3 4 4 5 6 7 8
1 1 2 3 3 2 2 2 2 1 1 1 0 1 1 1 1 1 1 1 2 1 1 1 1 1 2 2 2 2 2 2 3 4 5 5 7 8
0 1 2 2 2 2 2 2 2 1 0 1 1 0 1 1 1 1 1 1 3 2 1 2 1 2 2 2 3 3 3 3 4 4 5 6 7 9
1 0 0 1 2 1 1 1 1 1 1 1 1 2 2 2 1 2 2 1 3 3 1 3 2 2 2 3 4 4 5 5 5 6 7 7 8 9
1 1 0 1 1 1 1 1 1 1 2 1 2 2 2 2 1 2 3 3 3 2 0 2 3 3 3 2 5 5 5 6 7 8 8 8 9 10
1 1 1 1 1 2 1 1 1 2 3 3 4 3 4 4 2 1 2 2 3 3 1 1 3 3 3 3 4 7 7 7 8 9 9 9 10 10
1 1 1 1 1 1 0 1 2 3 2 3 3 4 4 4 5 3 2 2 2 3 2 1 2 2 4 3 2 3 4 7 10 10 10 11 10 6
1 1 1 2 2 2 2 2 4 4 3 3 3 3 3 2 3 3 3 3 3 4 3 1 2 2 3 4 3 3 3 3 4 6 9 11 11 8
2 1 1 2 3 4 3 5 6 6 3 2 3 3 3 3 3 3 4 4 5 5 4 2 2 3 3 5 5 4 3 3 3 4 4 7 9 11
1 1 1 2 3 3 5 6 5 3 2 3 3 4 3 3 3 2 3 4 4 5 4 4 4 4 4 5 5 4 4 4 3 3 4 4 4 4
2 2 3 4 4 4 4 4 3 3 3 4 4 4 3 2 3 2 3 3 3 4 4 4 4 4 5 6 5 6 4 4 4 4 5 5 5 5
2 1 1 2 2 3 3 3 2 2 3 3 3 3 3 3 3 3 2 2 3 4 4 4 4 5 6 6 6 6 5 5 5 5 5 6 6 6
1 1 2 2 3 3 2 2 2 2 2 2 3 3 3 3 3 3 2 3 4 4 4 4 3 4 5 5 6 6 5 5 5 5 5 6 7 6
1 2 2 2 2 2 2 2 3 3 2 2 3 3 3 3 4 4 3 3 4 4 4 4 3 3 6 8 7 5 6 6 5 6 6 6 8 7
2 2 2 2 2 2 2 2 2 2 2 2 3 3 3 3 4 4 4 4 5 5 5 4 4 4 6 8 7 6 7 7 6 7 7 6 7 8
2 2 2 2 2 2 2 2 2 2 3 3 3 3 3 4 4 4 5 7 6 5 6 6 6 8 6 5 6 6 6 8 10 8 7 7 7 7
2 2 2 2 2 2 2 2 2 2 3 3 3 3 3 4 5 6 5 5 5 6 7 6 6 5 4 6 8 9 8 7 8 11 11 10 8 8
2 2 2 1 1 1 1 2 3 3 3 3 3 4 4 4 5 5 5 5 6 7 7 7 5 5 5 6 8 8 10 9 6 7 7 11 15 17
Wind_Direction
66 71 63 31 28 24 38 76 115 105 21 47 76 76 104 105 89 96 88 62 55 50 45 41 38 37 35 32 30 27 25 24 23 24 24 24 27 25
81 73 62 49 27 36 36 32 62 112 113 344 98 133 101 105 105 112 115 96 66 58 51 43 38 34 32 29 27 25 25 25 25 25 24 22 24 26
101 99 89 69 45 32 36 44 44 80 115 325 35 89 86 66 60 175 158 145 100 76 70 47 35 29 27 25 23 23 23 21 20 19 18 18 17 17
68 85 92 90 77 45 39 51 57 86 120 129 338 22 53 98 41 321 0 121 151 147 142 87 44 25 21 21 18 18 18 15 15 15 15 12 10 7
85 74 68 82 84 73 70 43 28 41 94 137 217 347 352 350 11 341 345 325 287 185 183 188 254 2 12 16 13 12 9 8 9 9 8 6 3 359
104 93 69 73 65 49 56 18 27 23 14 74 129 331 318 311 40 335 325 307 298 318 294 201 222 235 263 297 335 341 350 358 357 355 355 354 352 348
147 125 110 102 87 76 64 29 28 26 2 13 350 356 333 354 316 283 293 297 298 292 288 250 225 234 244 265 275 290 296 309 318 324 331 333 332 331
205 155 144 126 126 116 100 81 70 79 26 8 332 294 289 292 300 314 319 337 309 309 317 289 255 248 234 226 236 242 254 269 282 294 306 310 313 315
318 292 209 137 133 150 190 213 281 300 229 201 234 258 267 284 312 320 305 284 260 269 314 287 286 275 260 243 228 235 251 263 273 281 287 293 299 302
313 286 151 96 81 101 141 206 224 255 247 228 225 253 264 272 262 263 262 278 282 284 262 275 286 275 274 254 241 243 252 258 264 270 277 282 288 290
310 350 54 97 36 56 42 312 296 279 259 243 234 252 270 283 286 321 313 306 294 282 256 250 282 292 281 263 255 252 253 254 259 266 274 278 281 284
245 230 95 107 94 64 349 301 289 284 289 287 282 280 271 268 264 235 228 253 278 287 275 258 285 313 304 281 264 258 258 262 260 261 266 272 276 277
240 223 211 189 197 239 259 250 269 290 288 282 279 273 267 258 253 247 232 221 242 257 266 254 272 278 266 289 291 268 248 261 261 265 263 269 271 266
252 232 220 209 238 254 256 271 286 296 291 287 282 280 274 266 254 245 243 241 237 242 250 232 241 252 268 279 283 289 283 269 257 264 263 268 268 267
242 229 273 273 266 258 260 272 278 270 266 267 267 265 259 261 267 271 269 263 266 262 258 244 243 250 246 258 270 274 285 280 266 267 269 266 266 270
245 253 266 265 263 262 266 263 249 244 243 247 255 260 264 271 272 269 270 274 279 281 272 257 252 253 259 261 262 270 267 271 280 273 270 270 269 264
225 225 234 245 250 256 253 251 247 257 262 264 269 276 277 273 267 258 256 262 266 275 281 276 266 260 253 255 267 267 268 270 268 271 276 276 268 262
192 224 240 244 247 251 257 265 258 252 257 270 277 278 280 281 282 279 270 263 267 269 270 273 284 295 296 276 249 265 268 269 272 272 271 277 279 270
205 235 243 251 262 264 260 261 267 264 257 261 272 277 279 283 287 285 281 276 275 273 274 272 271 271 281 283 277 251 267 277 278 277 269 267 275 276
226 240 254 262 267 269 268 270 277 286 281 274 273 277 277 278 281 281 280 277 278 279 280 275 265 258 261 272 278 273 254 262 272 274 273 271 270 273
235 247 256 265 270 271 276 282 285 282 283 283 280 278 278 277 277 275 277 280 277 276 275 271 264 266 267 277 281 278 270 258 260 267 275 282 287 287
237 247 257 266 274 284 292 293 294 296 296 291 287 283 282 279 277 276 275 277 276 274 276 276 277 276 269 270 277 282 286 287 277 273 265 263 271 278
239 248 256 269 278 288 292 296 298 297 297 296 298 296 293 292 289 283 280 278 281 283 284 287 286 279 273 271 277 282 286 290 292 290 279 266 262 267